TimeAEST,TemperatureF,Dew PointF,Humidity,Sea Level PressureIn,VisibilityMPH,Wind Direction,Wind SpeedMPH,Gust SpeedMPH,PrecipitationIn,Events,Conditions,WindDirDegrees,DateUTC
12:00 AM,46,39,68,29.81,19,WNW,10.4,,,,Partly Cloudy,300,2013-08-03 14:00:00
12:00 AM,46.4,39.2,76,29.80,6.2,WNW,10.4,-,N/A,,Partly Cloudy,300,2013-08-03 14:00:00
12:30 AM,46.4,39.2,76,29.80,6.2,West,15.0,-,N/A,,Partly Cloudy,270,2013-08-03 14:30:00
1:00 AM,47,39,66,29.81,,West,13.8,,,,,270,2013-08-03 15:00:00
1:00 AM,46.4,39.2,76,29.80,6.2,West,13.8,-,N/A,,Partly Cloudy,270,2013-08-03 15:00:00
1:30 AM,46.4,39.2,76,29.80,6.2,West,11.5,-,N/A,,Scattered Clouds,280,2013-08-03 15:30:00
2:00 AM,46.4,39.2,76,29.80,6.2,WNW,11.5,-,N/A,,Scattered Clouds,300,2013-08-03 16:00:00
2:30 AM,46.4,39.2,76,29.80,6.2,NW,10.4,-,N/A,,Mostly Cloudy,310,2013-08-03 16:30:00
3:00 AM,48,38,59,29.82,19,NW,11.5,,,,Partly Cloudy,320,2013-08-03 17:00:00
3:00 AM,48.2,37.4,66,29.80,6.2,NW,11.5,-,N/A,,Mostly Cloudy,310,2013-08-03 17:00:00
3:30 AM,48.2,39.2,71,29.80,6.2,NW,10.4,-,N/A,,Mostly Cloudy,310,2013-08-03 17:30:00
4:00 AM,48,38,60,29.82,,WNW,12.7,,,,,290,2013-08-03 18:00:00
4:00 AM,48.2,39.2,71,29.80,6.2,WNW,12.7,-,N/A,,Mostly Cloudy,290,2013-08-03 18:00:00
4:30 AM,46.4,39.2,76,29.83,6.2,West,13.8,-,N/A,,Mostly Cloudy,280,2013-08-03 18:30:00
5:00 AM,46.4,39.2,76,29.83,6.2,West,10.4,-,N/A,,Mostly Cloudy,280,2013-08-03 19:00:00
5:30 AM,46.4,39.2,76,29.83,6.2,West,11.5,-,N/A,,Mostly Cloudy,280,2013-08-03 19:30:00
6:00 AM,45,40,77,29.87,19,WNW,11.5,,,,Partly Cloudy,300,2013-08-03 20:00:00
6:00 AM,44.6,41.0,87,29.86,6.2,WNW,11.5,-,N/A,,Mostly Cloudy,300,2013-08-03 20:00:00
6:30 AM,44.6,39.2,81,29.86,6.2,WNW,11.5,-,N/A,,Mostly Cloudy,290,2013-08-03 20:30:00
7:00 AM,44,38,74,29.90,,West,12.7,,,,,280,2013-08-03 21:00:00
7:00 AM,44.6,39.2,81,29.89,6.2,West,12.7,-,N/A,,Scattered Clouds,280,2013-08-03 21:00:00
7:30 AM,44.6,39.2,81,29.89,6.2,WNW,10.4,-,N/A,,Mostly Cloudy,300,2013-08-03 21:30:00
8:00 AM,44.6,39.2,81,29.92,6.2,NW,9.2,-,N/A,,Mostly Cloudy,310,2013-08-03 22:00:00
8:30 AM,48.2,39.2,71,29.92,6.2,NW,10.4,-,N/A,,Mostly Cloudy,310,2013-08-03 22:30:00
9:00 AM,49,40,61,29.94,19,WNW,10.4,,,,Partly Cloudy,300,2013-08-03 23:00:00
9:00 AM,50.0,39.2,66,29.92,6.2,WNW,10.4,-,N/A,,Mostly Cloudy,300,2013-08-03 23:00:00
9:30 AM,50.0,41.0,71,29.92,6.2,WNW,10.4,-,N/A,,Mostly Cloudy,300,2013-08-03 23:30:00
10:00 AM,51,39,54,29.95,,WNW,12.7,,,,,290,2013-08-04 00:00:00
10:00 AM,51.8,39.2,62,29.95,6.2,WNW,12.7,-,N/A,,Mostly Cloudy,290,2013-08-04 00:00:00
10:30 AM,51.8,39.2,62,29.95,6.2,West,13.8,-,N/A,,Mostly Cloudy,270,2013-08-04 00:30:00
11:00 AM,53.6,39.2,58,29.95,6.2,West,18.4,-,N/A,,Mostly Cloudy,270,2013-08-04 01:00:00
11:30 AM,53.6,39.2,58,29.92,-9999.0,WNW,16.1,-,N/A,,Clear,290,2013-08-04 01:30:00
12:00 PM,54,41,50,29.95,19,West,15.0,,,,Partly Cloudy,280,2013-08-04 02:00:00
12:00 PM,53.6,41.0,62,29.92,6.2,West,15.0,-,N/A,,Mostly Cloudy,280,2013-08-04 02:00:00
12:30 PM,55.4,41.0,58,29.92,6.2,West,17.3,-,N/A,,Mostly Cloudy,280,2013-08-04 02:30:00
1:00 PM,55,40,45,29.93,,West,15.0,,,,,280,2013-08-04 03:00:00
1:00 PM,55.4,39.2,54,29.92,6.2,West,15.0,-,N/A,,Mostly Cloudy,280,2013-08-04 03:00:00
1:30 PM,55.4,39.2,54,29.92,6.2,West,11.5,-,N/A,,Mostly Cloudy,270,2013-08-04 03:30:00
2:00 PM,53.6,41.0,62,29.92,6.2,WSW,9.2,-,N/A,,Mostly Cloudy,250,2013-08-04 04:00:00
2:30 PM,55.4,41.0,58,29.89,6.2,WNW,12.7,-,N/A,,Mostly Cloudy,300,2013-08-04 04:30:00
3:00 PM,55,41,49,29.91,16,WNW,13.8,,,,Mostly Cloudy,290,2013-08-04 05:00:00
3:00 PM,55.4,41.0,58,29.89,6.2,WNW,13.8,-,N/A,Rain,Light Rain Showers,290,2013-08-04 05:00:00
3:30 PM,55.4,41.0,58,29.89,6.2,NNW,15.0,-,N/A,,Mostly Cloudy,340,2013-08-04 05:30:00
4:00 PM,54,41,52,29.91,,NNW,15.0,,,,,330,2013-08-04 06:00:00
4:00 PM,53.6,41.0,62,29.89,6.2,NNW,15.0,-,N/A,Rain,Light Rain Showers,330,2013-08-04 06:00:00
4:30 PM,51.8,44.6,76,29.89,6.2,NW,12.7,-,N/A,Rain,Light Rain Showers,310,2013-08-04 06:30:00
5:00 PM,51.8,42.8,71,29.89,6.2,NW,12.7,-,N/A,,Mostly Cloudy,320,2013-08-04 07:00:00
5:30 PM,51.8,42.8,71,29.89,6.2,NNW,11.5,-,N/A,,Mostly Cloudy,330,2013-08-04 07:30:00
6:00 PM,52,43,62,29.92,19,NNW,12.7,,,,Partly Cloudy,330,2013-08-04 08:00:00
6:00 PM,51.8,42.8,71,29.89,6.2,NNW,12.7,-,N/A,,Mostly Cloudy,330,2013-08-04 08:00:00
6:30 PM,53.6,41.0,62,29.92,6.2,NNW,12.7,-,N/A,Rain,Light Rain Showers,340,2013-08-04 08:30:00
7:00 PM,52,42,59,29.93,,NNW,12.7,,,,,340,2013-08-04 09:00:00
7:00 PM,51.8,42.8,71,29.92,-9999.0,NNW,12.7,-,N/A,,Clear,340,2013-08-04 09:00:00
7:30 PM,51.8,42.8,71,29.92,6.2,North,12.7,-,N/A,Rain,Light Rain Showers,360,2013-08-04 09:30:00
8:00 PM,51.8,42.8,71,29.92,-9999.0,North,13.8,-,N/A,,Clear,350,2013-08-04 10:00:00
8:30 PM,51.8,42.8,71,29.89,-9999.0,North,17.3,-,N/A,,Clear,350,2013-08-04 10:30:00
9:00 PM,53,43,59,29.92,19,North,13.8,,,,Partly Cloudy,350,2013-08-04 11:00:00
9:00 PM,51.8,42.8,71,29.89,-9999.0,North,13.8,-,N/A,,Clear,350,2013-08-04 11:00:00
9:30 PM,51.8,42.8,71,29.89,-9999.0,North,15.0,-,N/A,,Clear,350,2013-08-04 11:30:00
10:00 PM,53,44,62,29.92,,North,15.0,,,,,350,2013-08-04 12:00:00
10:00 PM,51.8,44.6,76,29.89,-9999.0,North,15.0,-,N/A,,Clear,350,2013-08-04 12:00:00
10:30 PM,53.6,44.6,72,29.89,-9999.0,North,12.7,-,N/A,,Clear,350,2013-08-04 12:30:00
11:00 PM,51.8,44.6,76,29.89,-9999.0,NNW,13.8,-,N/A,,Clear,340,2013-08-04 13:00:00
11:30 PM,53.6,44.6,72,29.89,-9999.0,NNW,15.0,-,N/A,,Clear,340,2013-08-04 13:30:00